Location: Malvern Link
(52.1333°N, 2.3000°W)
Time: 16:20:10
(UTC+00:00)

Cosmos 1025 Rocket - Pass Details

Date: 18 September 2020
Orbit: 595 x 617 km, 82.5° (Epoch: 20 October)

Event Time Altitude Azimuth Distance (km) Brightness Sun altitude
Rises 18:44:16 0° 356° (N) 2,885 6.7 -5.1°
Reaches altitude 10° 18:46:45 10° 8° (N) 1,979 5.7 -5.5°
Maximum altitude 18:50:34 28° 68° (ENE) 1,152 4.0 -6.1°
Drops below altitude 10° 18:54:22 10° 129° (SE) 1,976 5.1 -6.7°
Enters shadow 18:56:09 - 138° (SE) 2,617 5.8 -6.9°
